Probability
0 0 0 0 0 0 0 0 0 0 0 0 0 0 0 0 0 0 0 0 0 0 0 0 0 0 0 0 0 0 0 0 0 0 0 0 0 0 0 0 0 0 0 0
0 0 0 0 0 0 0 0 0 0 0 0 0 0 0 0 0 0 0 0 0 0 0 0 0 0 0 0 0 0 0 0 0 0 0 0 0 0 0 0 0 0 0 0
0 0 0 0 0 0 0 0 0 0 0 0 0 0 0 0 0 0 0 0 0 0 0 0 0 0 0 0 0 0 0 0 0 0 0 0 0 0 0 0 0 0 0 0
0 0 0 0 0 0 0 0 0 0 0 0 0 0 0 0 0 0 0 0 0 0 0 0 0 0 0 0 0 0 0 0 0 0 0 0 0 0 0 0 0 0 0 0
0 0 0 0 0 0 0 0 0 0 0 0 0 0 0 0 0 0 0 0 0 0 0 0 0 0 0 0 0 0 0 0 0 0 0 0 0 0 0 0 0 0 0 0
0 0 0 0 0 0 0 0 0 0 0 0 0 0 0 0 0 0 0 0 0 0 0 0 0 0 0 0 0 0 0 0 0 0 0 0 0 0 0 0 0 0 0 0
0 0 0 0 0 0 0 0 0 0 0 0 0 0 0 0 0 0 0 0 0 0 0 0 0 0 0 0 0 0 0 0 0 0 0 0 0 0 0 0 0 0 0 0
0 0 0 0 0 0 0 0 0 0 0 0 0 0 0 0 0 0 0 0 0 0 0 0 0 0 0 0 0 0 0 0 0 0 0 0 0 0 0 0 0 0 0 0
0 0 0 0 0 0 0 0 0 0 0 0 0 0 0 0 0 0 0 0 0 0 0 0 0 0 0 0 0 0 0 0 0 0 0 0 0 0 0 0 0 0 0 0
0 0 0 0 0 0 0 0 0 0 0 0 0 0 0 0 0 0 0 0 0 0 0 0 0 0 0 0 0 0 0 0 0 0 0 0 0 0 0 0 0 0 0 0
0 0 0 0 0 0 0 0 0 0 0 0 0 0 0 0 0 0 0 0 0 0 0 0 0 0 0 0 0 0 0 0 0 0 0 0 0 0 0 0 0 0 0 0
0 0 0 0 0 0 0 0 0 0 0 0 0 0 0 0 0 0 0 0 0 0 0 0 0 0 0 0 0 0 0 0 0 0 0 0 0 0 0 0 0 0 0 0
0 0 0 0 0 0 0 0 0 0 0 0 0 0 0 0 0 0 0 0 0 0 0 0 0 0 0 0 0 0 0 0 0 0 0 0 0 0 0 0 0 0 0 0
0 0 0 0 0 0 0 0 0 0 0 0 0 0 0 0 0 0 0 0 0 0 0 0 0 0 0 0 0 0 0 0 0 0 0 0 0 0 0 0 0 0 0 0
0 0 0 0 0 0 0 0 0 0 0 0 0 0 0 0 0 0 0 0 0 0 0 0 0 0 0 0 0 0 0 0 0 0 0 0 0 0 0 0 0 0 0 0
0 0 0 0 0 0 0 0 0 0 0 0 0 0 0 0 0 0 0 0 0 0 0 0 0 0 0 0 0 0 0 0 0 0 0 0 0 0 0 0 0 0 0 0
0 0 0 0 0 0 0 0 0 0 0 0 0 0 0 0 0 0 0 0 0 0 0 0 0 0 0 0 0 0 0 0 0 0 0 0 0 0 0 0 0 0 0 0
0 0 0 0 0 0 0 0 0 0 0 0 0 0 0 0 0 0 0 0 0 0 0 0 0 0 0 0 0 0 0 0 0 0 0 0 0 0 0 0 0 0 0 0
0 0 0 0 0 0 0 0 0 0 0 0 0 0 0 0 0 0 0 0 0 0 0 0 0 0 0 0 0 0 0 0 0 0 0 0 0 0 0 0 0 0 0 0
0 0 0 0 0 0 0 0 0 0 0 0 0 0 0 0 0 0 0 0 0 0 0 0 0 0 0 0 0 0 0 0 0 0 0 0 0 0 0 0 0 0 0 0
0 0 0 0 0 0 0 0 0 0 0 0 0 0 0 0 0 0 0 0 0 0 0 0 0 0 0 0 0 0 0 0 0 0 0 0 0 0 0 0 0 0 0 0
0 0 0 0 0 0 0 0 0 0 0 0 0 0 0 0 0 0 0 0 0 0 0 0 0 0 0 0 0 0 0 0 0 0 0 0 0 0 0 0 0 0 0 0
0 0 0 0 0 0 0 0 0 0 0 0 0 0 0 0 0 0 0 0 0 0 0 0 0 0 0 0 0 0 0 0 0 0 0 0 0 0 0 0 0 0 0 0
0 0 0 0 0 0 0 0 0 0 0 0 0 0 0 0 0 0 0 0 0 0 0 0 0 0 0 0 0 0 0 0 0 0 0 0 0 0 0 0 0 0 0 0
0 0 0 0 0 0 0 0 0 0 0 0 0 0 0 0 0 0 0 0 0 0 0 0 0 0 0 0 0 0 0 0 0 0 0 0 0 0 0 0 0 0 0 0
0 0 0 0 0 0 0 0 0 0 0 0 0 0 0 0 0 0 0 0 0 0 0 0 0 0 0 0 0 0 0 0 0 0 0 0 0 0 0 0 0 0 0 0
0 0 0 0 0 0 0 0 0 0 0 0 0 0 0 0 0 0 0 0 0 0 0 0 0 0 0 0 0 0 0 0 0 0 0 0 0 0 0 0 0 0 0 0
Height
5590 5589 5587 5585 5584 5582 5580 5578 5577 5576 5575 5575 5573 5571 5569 5568 5567 5567 5566 5565 5565 5564 5563 5562 5561 5560 5559 5558 5558 5557 5556 5555 5555 5554 5554 5554 5553 5553 5553 5553 5552 5552 5551 5551
5582 5580 5578 5577 5576 5574 5572 5570 5568 5567 5566 5566 5563 5562 5560 5559 5559 5558 5557 5556 5555 5555 5554 5553 5552 5551 5550 5549 5548 5547 5546 5545 5545 5544 5544 5543 5543 5542 5542 5542 5542 5542 5541 5541
5572 5571 5569 5568 5569 5566 5565 5563 5560 5558 5558 5556 5555 5553 5552 5551 5550 5549 5548 5547 5546 5545 5545 5544 5543 5542 5541 5540 5539 5538 5537 5536 5535 5534 5533 5533 5532 5532 5532 5532 5532 5532 5531 5531
5562 5562 5559 5563 5560 5558 5556 5554 5552 5550 5549 5547 5546 5545 5543 5542 5541 5540 5539 5538 5538 5537 5536 5535 5534 5533 5532 5530 5529 5528 5527 5526 5525 5524 5523 5523 5522 5522 5522 5522 5523 5522 5522 5521
5554 5552 5551 5553 5551 5549 5547 5545 5544 5541 5540 5538 5537 5536 5535 5534 5532 5531 5531 5530 5529 5528 5528 5527 5526 5525 5523 5522 5520 5519 5517 5516 5515 5514 5513 5513 5512 5512 5513 5513 5513 5513 5513 5512
5546 5544 5543 5545 5543 5539 5538 5535 5535 5533 5531 5530 5529 5528 5528 5526 5524 5523 5522 5522 5521 5520 5519 5519 5518 5516 5515 5513 5512 5510 5508 5507 5505 5504 5504 5504 5503 5503 5504 5504 5504 5504 5504 5504
5538 5535 5535 5536 5533 5531 5530 5529 5526 5524 5523 5522 5521 5520 5519 5517 5516 5515 5514 5514 5513 5512 5511 5510 5509 5508 5507 5505 5504 5502 5500 5498 5497 5496 5495 5495 5495 5495 5495 5495 5495 5496 5496 5496
5530 5528 5529 5527 5525 5524 5522 5519 5517 5516 5515 5513 5512 5511 5510 5509 5508 5507 5506 5506 5505 5504 5503 5502 5501 5500 5499 5498 5496 5493 5492 5490 5489 5488 5487 5487 5487 5487 5487 5487 5487 5487 5488 5488
5523 5523 5520 5518 5516 5515 5513 5511 5509 5508 5506 5505 5504 5503 5502 5501 5500 5499 5498 5498 5497 5496 5495 5494 5493 5492 5491 5489 5487 5486 5484 5483 5482 5481 5480 5479 5479 5479 5479 5479 5480 5480 5480 5480
5514 5514 5512 5510 5508 5507 5505 5503 5501 5500 5498 5497 5496 5495 5494 5493 5492 5491 5491 5490 5489 5489 5488 5487 5485 5484 5483 5481 5479 5478 5477 5476 5475 5474 5473 5473 5472 5472 5473 5473 5473 5473 5473 5473
5506 5506 5504 5503 5501 5499 5497 5495 5494 5492 5491 5489 5488 5487 5486 5485 5484 5484 5483 5482 5482 5481 5480 5479 5477 5476 5475 5473 5472 5471 5470 5468 5468 5467 5466 5466 5466 5466 5466 5467 5467 5467 5467 5467
5499 5498 5497 5496 5494 5492 5490 5488 5486 5485 5483 5482 5480 5479 5478 5478 5477 5476 5476 5475 5474 5473 5472 5471 5469 5468 5467 5466 5465 5463 5462 5462 5461 5460 5460 5460 5460 5460 5460 5461 5461 5461 5461 5461
5491 5490 5489 5488 5486 5484 5483 5481 5479 5477 5476 5474 5473 5472 5471 5470 5470 5469 5468 5467 5467 5466 5465 5463 5462 5461 5460 5459 5458 5457 5456 5455 5455 5454 5454 5455 5455 5455 5455 5455 5455 5455 5455 5455
5484 5482 5481 5480 5478 5477 5475 5473 5471 5470 5468 5467 5466 5465 5464 5463 5463 5462 5461 5460 5460 5459 5458 5457 5456 5455 5454 5453 5452 5451 5451 5450 5450 5450 5450 5450 5450 5450 5450 5450 5450 5450 5450 5450
5476 5475 5473 5472 5471 5469 5467 5466 5464 5463 5461 5460 5459 5458 5457 5457 5456 5455 5454 5454 5453 5452 5451 5450 5449 5449 5448 5447 5447 5446 5446 5446 5445 5445 5445 5446 5446 5446 5445 5445 5445 5445 5445 5445
5469 5467 5466 5465 5463 5462 5460 5458 5457 5455 5454 5453 5452 5451 5451 5450 5449 5449 5448 5447 5446 5446 5445 5444 5443 5443 5442 5442 5442 5441 5441 5441 5441 5442 5442 5442 5442 5442 5442 5441 5441 5441 5441 5441
5462 5460 5459 5458 5456 5454 5452 5451 5449 5448 5447 5446 5446 5445 5444 5443 5443 5442 5442 5441 5440 5439 5439 5438 5438 5438 5437 5437 5437 5437 5437 5437 5438 5438 5438 5438 5438 5438 5438 5438 5438 5438 5438 5438
5455 5454 5452 5451 5449 5447 5445 5444 5443 5442 5441 5440 5439 5438 5438 5437 5436 5436 5435 5434 5434 5433 5433 5432 5432 5433 5432 5432 5432 5432 5433 5433 5434 5434 5434 5434 5434 5434 5434 5434 5434 5434 5434 5434
5448 5447 5446 5444 5442 5440 5439 5438 5437 5436 5435 5433 5433 5432 5431 5431 5430 5429 5429 5428 5428 5427 5427 5427 5428 5428 5428 5428 5428 5428 5429 5429 5430 5430 5431 5431 5431 5431 5431 5431 5431 5431 5431 5431
5442 5440 5439 5438 5436 5435 5433 5432 5431 5430 5429 5427 5427 5426 5425 5425 5424 5423 5423 5422 5422 5422 5423 5423 5424 5424 5424 5424 5424 5424 5425 5426 5426 5427 5427 5428 5428 5428 5428 5428 5428 5428 5428 5428
5435 5434 5433 5432 5431 5429 5428 5426 5425 5424 5423 5422 5421 5420 5420 5419 5419 5418 5418 5418 5418 5418 5419 5420 5420 5420 5420 5421 5421 5421 5422 5423 5423 5424 5424 5424 5424 5424 5424 5424 5424 5425 5425 5425
5429 5428 5427 5426 5425 5424 5422 5421 5420 5419 5418 5417 5416 5416 5415 5415 5415 5414 5414 5414 5415 5415 5416 5416 5417 5417 5418 5418 5418 5419 5419 5420 5420 5421 5421 5421 5421 5421 5421 5421 5421 5422 5422 5422
5422 5421 5420 5420 5419 5418 5417 5416 5415 5414 5413 5412 5412 5412 5411 5411 5411 5411 5411 5412 5412 5413 5413 5414 5415 5415 5415 5416 5416 5416 5417 5417 5418 5418 5418 5418 5418 5418 5418 5418 5419 5419 5419 5420
5416 5415 5414 5414 5413 5412 5412 5411 5410 5409 5409 5408 5408 5408 5408 5408 5408 5408 5408 5409 5410 5410 5411 5412 5412 5413 5413 5413 5413 5414 5414 5415 5415 5415 5415 5416 5416 5416 5416 5416 5416 5417 5417 5417
5410 5409 5409 5408 5408 5407 5406 5406 5405 5405 5405 5404 5404 5405 5405 5405 5405 5406 5406 5406 5407 5408 5409 5410 5410 5410 5411 5411 5411 5411 5412 5412 5413 5413 5413 5413 5413 5413 5413 5414 5414 5415 5415 5416
5404 5403 5403 5403 5402 5402 5401 5401 5401 5401 5400 5401 5401 5401 5401 5402 5402 5403 5403 5404 5405 5406 5406 5407 5408 5408 5408 5408 5409 5409 5409 5410 5410 5411 5411 5411 5411 5412 5412 5412 5413 5413 5414 5414
5398 5398 5397 5397 5397 5397 5397 5396 5396 5396 5396 5397 5397 5397 5398 5398 5399 5399 5400 5401 5402 5403 5403 5404 5405 5405 5406 5406 5406 5406 5407 5407 5408 5408 5409 5409 5410 5410 5411 5411 5411 5412 5412 5412
Wind_Speed
28 28 28 28 29 29 30 30 30 29 28 27 27 27 28 28 28 28 29 28 29 29 29 29 29 30 30 31 32 32 33 35 35 36 37 36 36 36 36 36 36 36 36 37
29 29 29 28 28 29 29 29 30 29 28 28 28 28 28 29 29 29 29 29 29 29 29 28 28 29 29 30 31 32 32 33 34 35 36 36 35 35 35 35 35 36 36 36
31 30 31 30 28 28 28 28 29 29 28 28 28 28 28 29 29 29 29 30 30 29 29 28 28 28 28 29 30 31 31 32 32 33 33 34 35 34 34 34 34 34 34 34
30 30 31 30 28 28 29 28 28 28 28 27 27 27 28 28 28 29 28 28 29 28 28 27 27 27 27 28 29 30 30 31 31 31 32 33 34 34 33 33 33 33 33 33
29 30 30 28 28 28 29 29 28 28 28 27 26 26 26 27 27 27 27 27 28 27 27 26 27 27 27 27 28 29 29 29 29 30 30 31 31 31 31 31 32 32 31 31
28 28 27 26 26 27 28 28 27 27 27 27 26 25 25 26 26 27 27 27 26 26 27 27 26 26 26 26 27 27 28 28 28 28 28 29 29 29 30 30 30 30 30 30
27 27 27 26 25 26 26 26 25 26 26 26 26 26 25 26 26 26 26 26 26 26 26 26 25 25 25 26 26 26 26 26 26 27 27 27 27 27 27 28 28 28 28 28
26 27 27 26 27 27 26 26 25 25 26 26 26 26 25 25 25 25 25 25 24 25 25 25 25 25 25 25 25 25 25 24 25 25 25 25 25 25 26 26 26 26 26 27
25 26 26 26 26 26 26 25 25 25 25 26 26 27 26 26 25 24 23 23 24 25 25 24 24 25 25 25 25 24 24 24 23 23 23 23 24 24 24 23 24 24 24 24
24 24 25 25 25 25 25 25 24 25 25 25 25 25 25 24 24 23 23 23 24 25 25 25 25 25 24 24 23 22 22 22 22 22 21 21 21 22 22 21 21 21 21 22
23 23 24 24 24 24 24 24 25 25 25 24 24 24 23 22 23 23 23 24 24 25 25 24 24 24 23 23 22 21 21 21 21 21 21 20 20 20 20 19 19 19 20 20
24 24 24 23 23 23 24 24 24 25 25 24 23 22 22 22 22 22 22 23 23 24 23 23 23 22 21 21 20 20 19 19 20 19 19 19 18 18 18 18 18 18 18 18
24 24 24 23 23 24 24 24 24 24 24 22 21 21 21 21 21 22 22 22 22 22 22 21 21 20 20 19 18 17 17 17 17 17 16 16 16 16 16 16 16 15 16 16
24 24 24 23 23 23 24 24 24 23 22 21 20 20 20 20 21 21 20 20 20 20 20 19 19 18 18 18 17 16 15 15 14 14 14 14 14 15 15 15 15 15 15 15
24 24 24 24 24 24 24 24 23 23 21 20 20 20 20 20 20 19 19 19 18 19 19 18 18 18 17 17 16 15 14 14 13 13 13 13 13 13 13 13 13 13 13 13
23 23 24 24 24 24 24 23 23 22 21 20 19 19 19 19 18 18 18 17 18 18 18 18 17 17 17 16 16 15 13 12 12 12 12 12 12 12 11 11 11 11 11 11
21 22 22 22 22 22 22 22 21 20 19 19 18 18 18 18 18 17 17 17 18 18 17 16 16 16 16 15 15 14 13 12 12 11 11 11 11 11 10 11 11 11 10 11
21 22 22 21 21 21 20 19 18 18 18 18 18 17 17 17 17 18 18 18 18 17 16 15 14 14 14 14 14 13 13 12 12 11 11 10 10 10 10 10 10 10 10 11
21 21 21 20 19 19 18 17 17 16 17 17 17 17 17 17 17 17 18 17 16 14 13 13 12 12 12 12 12 12 11 11 11 10 10 10 10 10 10 10 10 11 10 10
20 20 20 19 18 17 16 16 16 16 16 16 16 16 17 17 16 16 15 15 13 12 12 11 11 11 11 10 9 10 10 10 10 10 10 10 10 10 10 10 10 10 10 9
19 19 19 18 17 16 16 16 17 16 15 15 15 14 14 14 14 14 13 12 12 11 11 11 10 9 8 8 8 8 9 9 9 10 10 9 9 10 10 9 9 9 9 9
19 18 18 17 17 16 16 16 15 15 14 13 12 12 11 11 11 11 11 10 10 10 10 9 8 8 7 7 7 7 8 8 9 9 9 9 9 9 9 9 9 9 8 8
18 17 17 16 16 15 15 15 14 13 13 12 11 10 10 10 10 10 9 9 8 8 8 7 7 7 7 7 7 8 8 8 8 8 8 9 9 9 8 8 8 8 8 7
16 16 16 15 15 15 14 14 13 12 12 11 11 10 9 9 9 9 8 8 7 7 7 7 7 7 7 7 8 8 8 7 7 7 7 8 8 8 8 7 7 7 7 7
16 16 15 15 15 14 14 13 12 11 11 11 10 10 10 9 9 8 8 8 7 7 7 7 7 7 7 7 7 7 8 8 7 7 7 7 7 7 6 6 6 6 6 6
15 15 15 14 13 13 13 13 12 11 11 10 10 10 10 10 9 9 9 8 8 8 8 8 7 7 7 7 6 7 7 7 7 7 6 6 5 6 6 6 6 6 6 5
15 14 13 13 13 13 12 12 11 11 11 10 10 10 10 9 9 9 9 9 9 8 8 8 8 8 8 8 7 7 7 7 7 7 6 6 6 6 6 6 6 6 5 5
Wind_Direction
282 284 285 286 284 283 282 283 283 283 282 280 279 276 274 273 272 273 274 274 274 274 275 274 273 273 272 272 272 272 271 270 270 270 270 269 268 267 267 267 267 267 268 266
282 283 283 284 283 283 284 285 283 282 282 281 279 276 275 273 273 273 274 274 275 275 275 275 275 274 273 274 274 273 273 272 271 271 270 270 269 268 268 267 266 267 267 267
283 283 283 282 283 283 285 286 285 283 283 281 279 277 276 275 274 275 275 275 276 276 277 277 277 277 277 276 275 275 275 273 273 272 271 271 270 268 267 267 267 268 268 267
284 284 283 284 283 283 284 286 286 283 282 281 279 278 278 277 276 276 276 276 275 275 277 277 278 279 280 278 277 277 276 275 274 273 272 271 268 267 267 268 268 268 268 268
282 284 284 285 287 288 288 286 285 283 281 280 280 279 279 278 276 274 274 276 275 275 276 276 277 280 281 280 280 279 277 276 274 273 272 271 268 266 267 268 270 269 268 269
281 283 285 288 288 289 290 288 284 282 281 281 281 280 279 278 276 276 275 276 275 275 277 277 278 279 280 281 282 282 280 277 274 273 273 271 268 267 268 269 269 268 268 269
280 281 283 286 289 291 291 291 286 283 281 281 282 282 281 280 278 277 276 276 275 276 277 277 278 279 280 282 284 284 281 279 277 276 274 271 268 267 268 268 267 268 268 268
279 280 283 284 286 288 289 288 286 285 283 283 284 283 281 279 279 277 275 275 275 275 277 278 278 279 280 282 283 284 282 280 279 279 275 270 268 266 266 266 266 267 268 268
279 281 283 283 286 287 289 289 287 286 285 283 282 280 279 277 277 277 276 274 275 276 278 279 279 279 281 282 283 283 282 281 279 277 275 272 268 267 268 266 266 267 268 269
280 281 282 284 285 286 287 287 287 288 288 285 280 278 277 276 275 275 277 277 277 277 279 279 280 281 282 284 283 281 280 279 277 274 272 270 266 266 267 266 265 266 267 269
280 281 283 284 285 287 288 288 286 286 287 285 280 277 277 277 276 276 275 277 278 278 279 280 282 283 282 283 281 278 278 277 276 273 271 270 266 265 266 266 266 267 267 269
282 283 284 286 286 289 290 289 288 288 287 284 281 279 278 277 277 277 276 278 279 280 280 281 282 282 281 281 280 277 275 275 276 273 269 269 267 266 267 268 268 267 267 269
283 283 284 286 287 289 290 290 290 288 286 283 280 278 279 277 276 276 276 277 279 279 281 283 282 281 280 280 279 277 274 273 274 271 268 269 267 266 266 266 266 267 269 270
283 283 284 285 286 287 288 289 289 288 286 281 279 278 278 277 276 276 276 277 279 279 281 283 281 280 279 278 277 277 274 271 271 268 266 268 267 266 267 267 267 269 270 270
284 284 284 285 286 287 288 288 288 287 285 281 279 277 277 277 276 275 275 277 279 279 280 280 278 277 275 274 273 273 270 268 268 267 265 268 268 268 269 267 266 267 268 270
284 284 285 286 286 287 287 285 285 284 283 281 278 276 275 275 276 275 276 278 279 280 280 278 276 273 273 271 269 267 266 265 266 266 265 268 268 268 267 266 266 265 264 266
286 286 288 288 288 287 285 285 283 281 280 279 277 275 274 274 274 274 275 278 280 282 281 277 274 273 272 269 265 262 262 264 262 260 264 268 269 267 267 267 265 263 264 266
287 288 291 291 289 287 285 284 284 283 282 279 275 274 275 275 274 273 274 277 279 280 278 275 272 272 272 269 263 261 261 262 259 260 263 265 266 266 267 267 265 263 266 269
287 289 291 293 293 289 286 284 284 284 284 280 275 273 274 275 276 276 274 275 275 274 271 268 268 271 272 268 263 259 258 258 258 259 262 263 266 265 265 267 265 264 267 268
285 287 289 292 294 291 288 285 284 285 283 279 275 273 273 274 275 275 273 271 269 267 264 264 269 275 272 264 262 258 255 256 256 259 260 263 267 266 266 266 264 264 264 262
285 287 289 291 291 290 289 287 286 285 282 280 276 275 274 272 271 271 269 266 263 262 261 264 268 269 265 261 260 257 255 256 256 256 257 262 268 270 267 264 262 261 258 256
285 286 287 287 289 290 289 289 288 286 282 279 276 273 272 270 269 268 268 264 259 258 259 260 261 261 259 261 260 260 260 258 254 254 258 263 268 272 269 261 256 254 252 250
283 283 284 286 287 289 288 288 288 285 280 275 273 272 270 269 266 264 263 260 257 255 254 252 255 257 259 264 264 261 260 257 254 256 260 264 269 270 265 255 249 246 243 242
282 282 282 283 285 287 288 287 284 280 276 271 268 267 266 264 264 261 258 253 250 249 249 251 257 262 263 266 264 257 252 250 253 256 259 264 266 264 257 247 239 234 234 236
276 278 280 280 282 284 284 281 279 277 274 269 264 262 259 255 256 257 254 249 248 247 248 251 258 264 268 270 263 252 246 248 250 256 262 262 260 253 244 230 222 222 227 233
272 275 277 277 278 279 280 279 275 271 269 264 260 259 257 254 252 252 251 247 244 244 247 253 258 261 264 268 262 254 251 250 250 252 253 251 245 235 225 219 216 218 225 230
272 274 274 275 276 279 279 276 269 265 264 260 257 256 255 252 252 252 250 245 242 243 247 253 256 258 262 262 257 253 252 253 250 244 238 238 233 226 219 215 215 219 224 226